Temperature
20 20 20 20 17 14 15 15 14 14 13 12 12 11 10 9 11 10 8 8 8 8 8 8 7 7 6 6 6 5 5 4 4 4 3 3 3 3 3 3 3 3 3 3 3 3 4 4 5
20 20 20 20 16 15 15 15 14 13 13 12 11 10 9 7 8 8 7 8 8 8 8 8 7 7 7 6 6 6 5 4 4 3 3 3 3 3 2 2 2 2 2 2 2 2 2 3 3
21 20 20 16 15 15 15 13 12 13 13 13 11 10 8 8 8 8 8 8 8 8 8 8 8 7 7 7 6 6 5 4 4 3 3 3 2 2 2 2 2 2 2 2 2 2 2 2 2
21 21 20 15 16 15 14 12 12 12 13 12 11 8 8 8 8 8 8 8 8 8 8 8 8 7 7 7 6 6 5 4 3 3 3 3 2 2 2 2 2 2 2 2 1 1 1 1 1
21 20 15 14 15 13 12 13 13 12 12 11 11 8 8 8 8 8 8 8 8 8 8 8 8 7 7 7 6 5 5 4 4 3 3 3 3 2 2 2 2 2 2 2 1 1 1 1 1
21 18 15 14 14 13 13 14 14 13 12 11 11 8 8 8 8 8 8 8 8 8 8 8 7 7 7 7 6 5 5 4 4 4 3 4 4 3 3 3 2 2 2 2 2 1 1 1 1
20 15 15 14 13 13 13 14 14 12 12 11 12 8 7 7 7 7 8 7 7 7 7 7 7 7 7 7 6 6 5 5 4 4 4 4 4 4 4 3 3 2 2 2 2 1 1 1 1
20 14 14 13 13 13 14 14 14 14 13 12 12 10 8 9 7 7 7 7 7 7 7 7 7 7 6 6 6 6 5 5 4 4 4 4 4 4 3 3 3 2 2 2 1 1 0 0 1
20 15 14 13 13 14 14 13 13 13 13 11 11 12 12 11 8 7 7 7 7 7 7 7 6 6 6 6 6 5 5 5 4 4 4 3 3 3 3 3 2 2 1 1 0 -1 -1 -1 -1
19 15 16 15 14 13 14 14 13 12 12 11 11 11 11 10 9 8 8 7 7 7 7 6 6 6 6 6 5 5 5 4 4 4 3 3 3 3 2 2 1 1 -0 -1 -1 -2 -2 -3 -3
16 14 15 14 15 14 13 13 13 12 10 12 12 12 11 10 9 9 8 8 7 7 7 6 6 6 6 5 5 5 5 4 4 3 3 3 2 2 1 1 0 -0 -1 -2 -3 -3 -4 -4 -4
14 13 14 14 14 14 14 13 12 12 13 14 14 13 12 11 10 9 8 7 7 6 6 6 6 6 6 5 5 5 4 4 3 3 3 2 2 1 1 -0 -1 -2 -2 -3 -4 -5 -5 -5 -5
13 13 14 14 14 14 14 12 13 13 14 13 13 12 12 11 11 10 8 7 7 6 6 6 6 6 5 5 5 5 4 4 3 2 2 2 1 0 -0 -1 -2 -3 -4 -4 -5 -5 -6 -6 -6
13 13 13 14 14 14 13 12 12 14 13 13 13 12 12 11 11 9 8 7 7 7 6 6 6 6 5 5 5 4 4 3 3 2 1 1 0 -0 -1 -2 -2 -3 -4 -5 -5 -6 -6 -7 -7
13 12 12 13 13 13 13 11 11 14 13 12 12 12 11 11 10 10 9 8 8 7 7 6 6 6 5 5 4 4 4 3 2 2 1 0 -0 -1 -1 -2 -3 -3 -4 -5 -6 -6 -7 -7 -7
13 13 13 13 12 12 11 11 12 14 12 12 12 11 11 11 10 10 9 8 8 7 7 7 6 6 5 5 4 4 3 3 2 1 1 -0 -1 -1 -2 -2 -3 -4 -5 -5 -6 -7 -7 -7 -8
14 13 14 14 11 11 10 10 12 13 12 11 11 11 11 11 10 10 9 8 8 7 7 7 6 6 5 5 4 4 3 2 2 1 1 -0 -1 -1 -2 -3 -3 -4 -5 -6 -7 -7 -8 -8 -8
16 14 14 14 12 10 9 10 10 11 10 11 11 11 11 11 12 11 10 9 8 7 7 7 6 6 5 4 4 3 3 2 2 1 1 0 -1 -1 -2 -3 -3 -4 -5 -6 -7 -8 -8 -9 -9
16 16 15 15 13 11 10 11 12 12 9 9 10 11 11 12 12 11 10 9 8 7 7 7 6 6 5 5 4 3 3 2 2 1 1 0 -1 -2 -2 -3 -4 -5 -5 -6 -7 -8 -9 -9 -9
16 16 15 15 13 12 10 11 12 11 10 10 10 10 12 13 12 11 10 9 9 8 8 7 7 6 5 5 4 3 3 2 2 1 1 -0 -1 -2 -2 -3 -4 -5 -6 -7 -8 -9 -9 -10 -10
16 16 15 15 14 12 12 11 12 12 11 11 12 13 13 13 13 13 11 10 10 9 9 8 7 6 6 5 4 3 3 2 2 1 0 -0 -1 -2 -3 -3 -4 -5 -6 -7 -8 -9 -10 -10 -10
15 15 15 15 13 11 13 11 12 13 11 10 11 12 14 15 14 14 13 12 11 11 10 9 8 7 6 5 4 3 3 2 2 1 0 -0 -1 -2 -3 -4 -4 -5 -7 -8 -8 -9 -10 -11 -11
15 15 14 14 13 11 11 11 13 13 12 12 12 15 16 17 16 15 14 14 13 12 11 9 8 7 6 5 4 3 3 2 1 1 0 -0 -1 -2 -3 -4 -5 -6 -7 -8 -9 -9 -10 -11 -11
14 14 13 10 10 11 11 11 12 11 12 13 14 17 19 19 17 16 15 14 13 12 11 10 8 7 6 5 4 3 3 2 1 1 0 -1 -1 -2 -3 -4 -5 -6 -7 -8 -9 -9 -10 -11 -11
14 13 13 13 11 12 12 12 13 13 12 13 16 19 20 19 18 17 16 15 14 13 12 10 9 7 6 5 4 3 3 2 1 1 -0 -1 -1 -2 -3 -4 -5 -6 -7 -8 -9 -9 -10 -10 -11
12 13 13 14 12 12 13 12 14 14 14 16 17 19 20 19 19 18 17 16 15 14 12 11 10 8 6 5 4 3 3 2 1 1 -0 -1 -1 -2 -3 -4 -5 -6 -7 -8 -9 -9 -10 -10 -10
14 12 12 11 12 11 11 11 12 14 14 14 15 17 19 19 19 18 17 16 15 14 13 12 10 9 7 5 4 3 2 2 1 0 -0 -1 -2 -2 -3 -4 -5 -6 -7 -8 -9 -9 -9 -9 -10
13 12 10 11 12 11 11 11 13 15 14 12 12 15 18 19 19 18 17 16 15 14 13 11 10 8 7 5 4 3 3 2 1 0 -0 -1 -2 -3 -3 -4 -5 -6 -7 -8 -8 -9 -9 -9 -9
11 12 11 10 10 10 11 13 13 14 14 13 13 16 19 19 19 18 18 17 15 14 13 11 10 8 6 5 4 3 2 2 1 0 -0 -1 -2 -3 -3 -4 -5 -6 -7 -7 -8 -9 -9 -9 -9
11 11 10 11 11 9 8 13 14 12 12 13 15 18 19 19 19 18 17 16 15 14 13 11 10 8 7 5 4 3 2 1 1 0 -1 -1 -2 -3 -3 -4 -5 -6 -7 -7 -8 -8 -9 -9 -9
Wind_Speed
4 6 4 4 6 6 3 3 6 5 3 3 4 8 8 5 3 5 5 9 15 12 8 4 7 8 9 10 11 12 13 14 15 16 17 18 18 19 20 21 21 22 23 23 24 25 25 26 27
3 4 5 5 5 3 3 5 6 4 7 8 6 6 6 3 3 8 6 10 16 13 8 4 7 8 9 10 11 12 13 14 15 16 17 17 18 18 19 20 21 21 22 23 24 24 25 26 26
2 3 5 5 5 6 7 5 7 5 6 5 5 5 5 7 7 8 8 15 17 13 8 5 8 7 8 9 10 11 12 13 14 15 16 17 17 18 19 20 20 21 22 23 23 24 25 25 26
4 5 5 6 3 2 5 6 8 8 4 5 6 5 3 2 8 8 12 18 16 12 8 5 7 7 7 8 9 10 11 12 13 15 16 17 17 18 19 19 20 21 22 23 23 24 25 25 25
4 5 6 5 2 3 2 7 8 7 7 4 6 6 2 2 6 11 14 17 14 12 9 5 7 6 6 6 7 8 10 11 13 14 15 16 17 18 18 19 20 21 22 23 24 24 25 25 25
5 5 5 4 3 2 3 6 7 6 6 6 8 8 5 4 9 11 13 14 17 14 10 5 6 5 4 5 6 7 9 10 12 13 15 16 17 17 18 20 21 22 23 23 24 25 25 26 26
5 5 5 8 6 5 6 6 9 8 7 9 10 9 4 6 8 10 12 15 15 14 11 9 7 6 5 4 5 6 7 9 11 12 14 15 17 17 19 20 21 22 22 23 23 24 25 25 26
5 6 6 7 7 7 7 6 5 8 6 7 9 10 8 10 10 10 9 10 11 12 12 11 9 6 4 3 4 5 6 7 9 11 12 14 15 16 18 20 20 21 21 22 22 23 24 25 25
4 5 5 9 9 8 8 6 3 3 7 5 4 6 7 15 13 11 7 6 7 8 10 12 10 7 4 3 3 4 4 6 7 8 10 11 14 15 16 19 19 20 19 20 21 22 23 23 24
5 5 8 5 6 9 9 8 9 6 5 4 1 1 9 18 17 15 12 11 10 9 8 11 11 9 5 3 2 2 2 4 5 6 7 9 11 13 14 16 17 18 17 18 19 21 21 20 20
5 5 4 1 3 9 9 8 8 10 8 10 10 10 15 16 16 16 14 12 11 10 9 11 13 11 7 4 3 1 1 2 3 3 5 7 8 10 12 14 15 16 15 16 17 18 17 17 18
5 3 2 1 3 7 10 9 7 10 10 8 12 18 20 19 20 19 16 12 11 10 10 10 15 12 9 6 4 3 2 1 0 1 2 4 5 7 8 9 11 13 13 14 14 15 16 17 17
4 2 2 3 6 6 8 7 6 9 8 5 13 17 20 20 18 14 12 12 12 12 11 9 15 14 11 8 6 5 4 3 3 2 1 0 1 2 4 6 8 10 11 12 12 14 15 15 15
4 3 3 3 4 2 5 5 5 10 7 10 15 18 19 19 18 13 12 14 15 14 13 9 13 15 12 9 8 6 6 5 5 4 4 3 2 2 3 5 7 10 11 12 12 14 13 12 13
5 5 2 2 0 1 2 7 10 7 10 12 14 16 17 17 16 16 15 15 16 14 13 11 13 15 13 11 9 7 7 6 6 6 6 6 5 4 4 5 7 10 11 12 12 13 11 11 12
4 3 3 5 5 3 5 10 10 9 13 13 13 13 16 17 17 15 15 14 15 14 14 13 13 14 13 12 10 8 6 6 7 7 7 8 7 6 6 6 8 10 11 10 9 7 5 6 7
1 2 5 4 7 6 7 11 7 7 13 14 14 15 16 16 16 15 15 16 16 16 16 14 10 12 13 12 10 8 6 7 7 7 9 9 9 8 7 7 9 10 9 9 9 6 5 7 8
5 6 6 7 6 8 8 15 12 8 13 14 14 14 16 19 21 15 16 15 16 16 15 14 12 11 12 10 7 5 4 6 7 8 10 10 10 9 8 8 9 9 7 5 5 6 6 6 8
4 5 7 6 5 8 12 18 18 10 12 15 14 15 18 22 17 13 15 14 14 15 15 16 13 11 8 5 4 3 3 3 5 9 10 11 10 9 9 8 9 8 5 5 6 5 6 5 5
4 5 5 4 4 7 9 15 16 10 12 14 17 19 20 18 14 14 15 16 18 19 18 17 16 14 12 7 5 4 3 3 6 7 8 10 10 9 8 8 7 8 5 5 6 5 4 5 6
4 4 5 4 3 4 6 11 9 6 7 10 12 14 15 19 19 17 18 19 19 21 21 19 17 15 13 10 5 3 2 1 2 4 4 8 9 10 9 9 9 8 6 5 6 6 6 6 6
5 2 1 1 2 5 2 6 9 6 7 9 14 14 17 18 17 17 18 19 21 22 18 17 17 15 13 12 9 8 7 6 6 4 4 8 9 9 9 10 9 9 7 6 7 6 6 6 8
5 2 1 0 1 5 3 4 11 5 8 13 14 16 19 18 17 18 20 22 21 19 17 16 16 15 14 13 12 10 8 7 5 4 6 6 7 9 10 10 10 9 8 8 8 7 7 6 7
4 4 4 5 4 5 7 7 9 7 10 10 10 13 16 16 16 16 15 14 15 14 15 15 17 16 15 14 12 12 11 9 7 7 6 5 4 6 10 11 11 11 10 9 9 8 8 8 8
4 4 4 4 2 7 4 6 11 12 11 11 12 13 14 13 13 13 14 15 16 17 18 17 18 17 16 15 14 13 12 11 11 9 8 7 5 5 7 10 10 10 12 12 12 8 8 8 9
6 7 6 5 5 6 5 8 11 11 10 11 11 10 10 11 11 14 16 16 17 19 19 19 20 17 17 16 14 12 11 9 8 9 7 7 6 6 9 11 11 12 13 13 11 7 8 8 9
5 6 7 5 4 6 8 9 12 8 7 8 9 9 11 12 12 13 13 14 16 18 21 21 20 17 17 16 14 12 11 10 10 9 8 6 6 7 10 10 10 11 12 12 9 7 9 9 10
3 5 5 4 4 7 8 8 7 9 10 10 10 12 14 12 11 11 12 14 15 16 16 16 18 18 15 15 14 12 11 11 10 8 9 8 8 9 7 8 8 8 9 10 8 8 9 10 11
6 5 6 5 4 6 6 9 8 10 10 12 15 15 14 14 13 13 13 12 12 11 14 16 16 15 15 15 14 12 11 11 10 9 9 8 7 8 7 7 8 8 9 8 9 10 10 11 13
8 9 9 6 7 6 5 11 9 11 11 11 13 13 12 12 11 11 11 10 11 14 15 17 17 16 16 15 14 13 11 10 10 10 9 8 8 7 8 7 8 9 9 9 9 11 12 12 14
Wind_Direction
83 104 75 58 58 57 112 163 149 123 88 65 79 95 103 107 146 156 151 137 123 109 97 67 83 73 64 56 49 44 40 37 34 30 27 26 25 24 23 20 18 16 14 12 10 8 7 5 3
83 109 58 62 85 106 211 170 145 152 144 134 95 89 87 85 92 122 153 142 123 116 110 93 93 80 69 60 51 45 40 37 34 31 27 26 24 23 22 20 17 15 14 13 10 8 7 5 3
42 92 82 74 95 174 198 176 154 127 132 119 84 67 109 145 143 161 164 140 125 121 117 111 103 87 73 62 53 45 40 36 34 30 27 26 24 23 23 19 17 15 14 13 11 10 8 6 4
64 55 55 70 92 305 189 172 151 128 102 82 106 95 83 134 167 164 145 136 128 131 129 124 112 97 80 64 53 46 39 36 34 30 28 26 23 22 23 19 17 15 14 13 12 11 9 8 6
66 82 67 65 40 355 117 149 142 133 142 114 120 130 135 351 133 132 139 139 140 147 144 139 118 103 87 68 54 47 40 36 34 30 28 26 22 21 22 18 16 15 14 13 11 10 9 9 6
62 74 92 155 149 99 165 172 142 127 137 130 130 143 188 171 139 144 146 148 149 153 152 127 115 96 80 65 54 47 41 37 34 30 28 26 22 20 21 17 15 14 12 11 10 9 8 7 4
99 93 134 161 159 182 200 173 156 149 159 177 152 142 191 207 183 155 148 149 150 151 145 127 109 91 68 46 50 47 42 37 34 29 28 26 22 20 20 16 13 12 10 9 7 6 6 4 2
115 103 111 161 171 206 181 153 166 158 174 151 143 154 198 202 184 151 145 146 147 148 146 140 128 111 88 56 46 47 41 35 32 26 26 27 24 22 19 13 11 10 8 7 5 3 2 1 359
91 87 168 194 185 197 177 147 126 128 131 133 179 197 197 159 158 146 149 157 160 157 156 153 143 130 118 105 68 49 41 34 37 30 27 32 31 26 20 12 10 7 5 3 1 359 358 357 353
66 145 196 202 200 177 176 158 155 140 157 175 162 31 135 151 164 169 175 177 175 175 177 167 156 149 143 140 116 70 71 56 49 43 41 38 34 27 20 12 8 4 1 359 355 354 352 349 342
71 151 168 330 172 152 151 154 158 148 200 210 195 173 155 164 176 183 186 182 181 179 179 175 166 162 164 173 180 168 127 83 50 41 39 36 34 27 19 11 4 359 354 351 346 344 340 334 331
82 46 105 11 121 141 155 159 184 195 215 211 182 165 166 177 186 192 192 186 176 177 182 179 171 170 177 187 199 192 182 179 175 29 33 35 35 23 11 0 352 346 341 336 333 329 327 324 323
101 130 26 45 93 128 141 174 212 233 231 165 151 164 178 187 194 198 193 183 176 183 183 180 173 175 182 191 202 196 203 212 222 223 222 69 69 5 344 335 334 331 328 324 321 320 317 316 317
120 97 62 40 62 105 155 218 251 245 167 148 163 180 190 195 196 196 191 185 185 185 183 178 175 179 182 189 201 212 217 223 222 223 217 210 207 250 290 305 314 317 318 317 315 313 310 310 311
95 80 6 290 206 172 106 267 237 226 153 171 186 193 198 204 202 202 196 189 188 186 181 178 179 179 182 191 204 213 222 225 223 224 221 218 221 239 260 277 293 304 312 313 315 312 312 315 317
95 69 290 239 198 173 161 257 253 182 169 191 199 202 207 211 211 208 198 190 187 183 181 183 181 178 183 191 202 212 221 222 225 226 228 227 231 242 252 264 282 299 306 308 307 303 307 305 305
17 277 267 256 195 173 196 249 269 177 187 203 207 209 213 217 219 213 202 194 188 185 183 185 177 175 182 188 196 205 214 219 226 234 238 237 237 245 252 262 280 294 297 300 308 322 302 305 309
235 230 254 253 208 179 219 256 265 201 208 217 215 215 218 221 222 212 205 196 189 186 184 183 180 178 177 176 180 192 212 225 235 245 248 242 241 250 257 267 279 289 287 289 291 295 296 293 300
224 235 260 260 191 188 234 259 269 220 215 229 226 221 223 228 225 210 203 195 188 187 186 185 184 181 169 162 172 189 215 223 243 253 250 239 242 253 262 271 281 284 274 275 286 291 297 296 300
238 270 274 280 194 206 265 273 270 225 212 222 223 224 226 231 224 213 203 196 195 193 192 190 189 184 182 178 169 173 178 204 229 241 238 236 244 256 264 266 271 278 276 283 289 292 287 296 314
262 244 255 276 337 262 305 299 283 252 220 231 228 226 228 226 225 216 208 203 200 200 196 195 191 187 184 174 156 154 155 226 233 228 230 239 251 262 266 272 274 275 266 268 278 281 277 293 298
255 212 214 291 333 292 225 292 289 267 259 246 238 232 233 230 226 218 211 206 206 205 197 194 188 186 182 174 174 174 189 205 216 214 223 245 255 260 266 271 274 272 267 260 273 290 273 280 295
216 158 156 261 221 300 238 222 280 281 263 256 243 233 235 231 223 220 214 211 208 200 194 191 185 186 182 180 182 183 198 209 216 223 237 245 252 257 263 270 271 266 263 264 268 274 270 265 274
121 66 53 50 69 286 224 191 273 237 221 242 243 233 231 230 223 223 216 206 201 192 189 187 186 188 184 184 185 189 198 204 213 224 234 241 242 252 260 266 263 262 262 264 266 264 264 264 266
105 86 349 326 324 255 224 210 250 246 225 221 227 231 229 223 218 217 209 202 197 191 191 190 189 191 188 188 192 196 198 199 209 217 225 230 237 242 249 258 258 260 261 265 266 260 262 261 264
184 157 180 239 253 286 282 237 254 257 251 236 238 241 237 227 218 217 212 204 199 195 192 191 193 193 190 193 198 198 196 199 209 212 213 220 228 237 248 253 254 257 262 269 267 262 262 265 263
184 204 183 165 262 270 267 276 296 266 265 239 234 241 242 235 225 221 213 203 198 195 195 194 194 194 194 195 195 198 198 199 206 209 212 221 228 242 248 248 251 258 262 264 263 262 264 266 267
206 153 118 158 235 264 280 270 252 272 256 247 241 239 245 244 239 230 216 208 203 200 196 194 195 196 194 193 196 201 200 202 204 204 214 222 230 241 248 250 252 256 261 263 260 264 266 266 271
168 190 189 186 194 202 265 266 231 240 246 239 236 235 239 239 235 230 222 211 199 190 191 195 197 196 195 196 197 196 196 199 200 208 217 223 230 234 240 246 251 257 260 260 261 265 269 269 274
187 198 168 187 237 213 235 267 260 253 263 248 246 244 243 242 239 232 218 199 195 197 198 199 200 200 200 196 195 198 194 194 201 212 218 221 229 232 237 245 254 261 265 262 262 270 277 273 276
Height
1564 1565 1567 1568 1572 1585 1590 1589 1588 1590 1592 1593 1593 1592 1594 1598 1601 1608 1606 1606 1608 1611 1612 1611 1611 1611 1609 1608 1606 1604 1602 1600 1598 1596 1594 1592 1590 1588 1585 1582 1579 1576 1574 1571 1568 1565 1562 1559 1556
1566 1566 1568 1568 1578 1594 1592 1588 1589 1588 1591 1592 1593 1594 1595 1597 1598 1600 1601 1604 1607 1609 1610 1610 1610 1609 1608 1607 1605 1603 1601 1599 1597 1595 1593 1591 1589 1587 1584 1581 1578 1576 1573 1570 1567 1564 1561 1558 1555
1566 1567 1568 1570 1582 1590 1588 1587 1588 1589 1591 1591 1593 1595 1596 1596 1598 1599 1601 1604 1606 1608 1609 1609 1608 1608 1606 1605 1604 1602 1600 1598 1597 1594 1592 1590 1588 1585 1583 1580 1577 1574 1571 1569 1566 1563 1560 1557 1554
1566 1567 1569 1576 1584 1584 1583 1585 1585 1588 1590 1591 1592 1595 1596 1597 1598 1599 1600 1603 1605 1606 1607 1607 1607 1606 1605 1604 1602 1600 1599 1597 1595 1593 1591 1588 1586 1584 1581 1578 1575 1573 1570 1567 1564 1561 1558 1555 1551
1565 1566 1575 1586 1586 1586 1584 1584 1585 1586 1589 1590 1592 1594 1595 1597 1597 1598 1600 1602 1604 1605 1606 1605 1605 1605 1604 1602 1601 1599 1597 1595 1594 1591 1589 1586 1584 1581 1579 1576 1573 1570 1568 1565 1562 1559 1556 1552 1548
1565 1566 1582 1590 1588 1587 1586 1585 1586 1587 1589 1590 1591 1593 1594 1595 1595 1597 1599 1601 1603 1604 1604 1604 1604 1603 1602 1601 1599 1597 1596 1594 1591 1589 1587 1584 1581 1579 1576 1574 1571 1569 1566 1563 1560 1557 1554 1550 1546
1565 1570 1581 1586 1589 1587 1585 1585 1585 1585 1587 1588 1589 1591 1592 1593 1594 1596 1598 1599 1601 1601 1602 1602 1602 1601 1600 1599 1597 1596 1594 1592 1589 1587 1585 1582 1580 1577 1575 1572 1570 1567 1564 1561 1558 1555 1552 1548 1544
1564 1569 1581 1586 1586 1584 1582 1583 1583 1584 1585 1587 1588 1587 1587 1588 1591 1594 1596 1597 1598 1599 1599 1600 1600 1599 1598 1597 1595 1594 1592 1590 1588 1585 1583 1580 1578 1576 1573 1570 1568 1565 1562 1559 1556 1552 1549 1545 1542
1564 1573 1581 1581 1581 1578 1578 1580 1582 1583 1584 1584 1584 1583 1584 1585 1588 1590 1592 1593 1594 1595 1596 1597 1598 1597 1596 1595 1593 1592 1590 1588 1586 1583 1581 1578 1576 1573 1571 1568 1565 1562 1559 1556 1552 1549 1545 1542 1538
1563 1574 1573 1571 1571 1572 1574 1576 1578 1581 1581 1581 1580 1580 1581 1582 1583 1585 1586 1588 1589 1591 1593 1594 1595 1595 1594 1592 1591 1589 1587 1585 1583 1581 1578 1576 1573 1571 1568 1565 1562 1559 1555 1552 1548 1544 1541 1537 1534
1565 1570 1569 1569 1568 1569 1572 1575 1576 1577 1579 1575 1574 1575 1577 1578 1579 1581 1582 1584 1586 1588 1590 1591 1592 1592 1591 1589 1588 1587 1585 1583 1580 1578 1576 1573 1570 1568 1565 1562 1558 1554 1551 1547 1543 1540 1536 1532 1529
1568 1570 1569 1569 1568 1569 1571 1573 1575 1573 1570 1571 1572 1573 1574 1574 1575 1576 1578 1580 1582 1584 1586 1587 1588 1588 1588 1587 1585 1584 1582 1580 1577 1575 1572 1570 1567 1564 1561 1557 1554 1550 1546 1542 1538 1535 1531 1528 1524
1570 1571 1570 1570 1570 1570 1572 1572 1572 1568 1568 1569 1569 1570 1570 1571 1572 1574 1576 1577 1578 1579 1581 1583 1585 1585 1584 1583 1582 1580 1578 1576 1574 1571 1568 1566 1563 1560 1557 1553 1549 1545 1541 1537 1534 1530 1527 1523 1520
1570 1571 1571 1571 1571 1572 1572 1572 1571 1563 1565 1565 1565 1565 1566 1567 1568 1570 1571 1571 1573 1575 1577 1579 1580 1581 1580 1579 1578 1577 1575 1572 1570 1567 1564 1562 1559 1556 1552 1549 1545 1541 1537 1533 1530 1526 1522 1519 1515
1571 1573 1574 1572 1572 1572 1574 1572 1564 1559 1560 1561 1561 1562 1562 1563 1565 1565 1566 1566 1568 1571 1573 1575 1576 1576 1576 1575 1574 1572 1571 1568 1566 1563 1560 1557 1554 1551 1548 1544 1541 1537 1533 1530 1526 1522 1519 1515 1511
1572 1575 1577 1571 1571 1571 1576 1571 1555 1555 1556 1556 1556 1557 1558 1559 1559 1561 1562 1563 1565 1567 1568 1570 1571 1571 1571 1571 1570 1568 1566 1564 1562 1559 1556 1553 1550 1547 1544 1540 1537 1533 1529 1526 1522 1518 1514 1510 1507
1575 1578 1575 1569 1569 1570 1573 1566 1552 1552 1552 1552 1552 1552 1553 1554 1554 1555 1557 1558 1560 1561 1563 1564 1565 1566 1566 1566 1565 1564 1562 1560 1557 1555 1552 1549 1546 1543 1540 1536 1533 1529 1525 1522 1518 1514 1510 1506 1502
1573 1575 1572 1569 1565 1569 1570 1560 1549 1550 1549 1547 1547 1547 1547 1547 1547 1550 1552 1553 1555 1556 1557 1558 1559 1560 1561 1561 1560 1559 1557 1555 1553 1550 1548 1545 1542 1539 1535 1532 1529 1525 1521 1518 1514 1510 1507 1503 1498
1565 1567 1567 1562 1560 1565 1563 1555 1544 1544 1545 1542 1541 1541 1540 1539 1542 1545 1547 1548 1549 1549 1550 1551 1552 1553 1555 1555 1554 1553 1552 1550 1548 1545 1543 1540 1537 1534 1531 1528 1524 1520 1517 1513 1510 1506 1502 1499 1495
1563 1565 1564 1561 1560 1562 1560 1551 1537 1534 1534 1532 1532 1532 1532 1533 1535 1537 1539 1541 1541 1541 1542 1543 1544 1546 1548 1549 1549 1548 1547 1545 1543 1541 1538 1535 1533 1530 1526 1523 1519 1516 1512 1509 1506 1502 1497 1494 1492
1561 1563 1562 1561 1560 1560 1561 1550 1534 1527 1527 1526 1525 1525 1525 1526 1527 1529 1531 1532 1533 1533 1533 1535 1537 1539 1541 1543 1543 1542 1541 1539 1538 1536 1533 1531 1528 1525 1522 1518 1515 1512 1508 1504 1501 1498 1494 1490 1487
1563 1559 1559 1560 1565 1568 1562 1565 1537 1526 1525 1521 1518 1518 1517 1518 1520 1522 1523 1524 1524 1525 1527 1529 1530 1532 1534 1535 1536 1535 1535 1534 1533 1531 1528 1526 1524 1521 1517 1514 1510 1507 1504 1500 1497 1493 1490 1486 1482
1557 1557 1559 1560 1564 1568 1564 1565 1540 1527 1524 1515 1510 1509 1509 1511 1513 1514 1515 1516 1517 1519 1520 1521 1523 1524 1526 1528 1529 1529 1528 1528 1527 1525 1523 1521 1519 1516 1513 1509 1506 1502 1499 1495 1492 1489 1485 1482 1478
1556 1559 1562 1567 1570 1572 1559 1564 1546 1527 1515 1507 1502 1502 1502 1504 1506 1507 1509 1510 1511 1512 1513 1513 1515 1516 1518 1520 1521 1521 1522 1521 1520 1519 1517 1515 1513 1511 1508 1504 1501 1497 1494 1490 1487 1483 1480 1476 1472
1558 1566 1573 1570 1574 1566 1551 1553 1532 1507 1502 1498 1496 1496 1497 1499 1500 1501 1502 1502 1503 1503 1504 1505 1506 1507 1510 1512 1513 1514 1515 1514 1513 1512 1511 1510 1508 1505 1502 1499 1495 1492 1488 1485 1481 1477 1474 1470 1466
1560 1563 1572 1574 1574 1563 1547 1545 1517 1498 1494 1492 1492 1493 1493 1494 1495 1495 1495 1495 1495 1496 1496 1497 1498 1499 1502 1504 1506 1507 1508 1507 1507 1506 1505 1503 1502 1499 1496 1493 1490 1486 1483 1479 1475 1471 1468 1464 1460
1555 1560 1559 1567 1567 1568 1552 1535 1513 1493 1491 1489 1488 1489 1488 1489 1489 1489 1489 1489 1489 1489 1489 1489 1490 1492 1494 1496 1499 1500 1501 1500 1500 1499 1498 1497 1495 1493 1490 1487 1484 1480 1477 1473 1470 1465 1462 1458 1454
1551 1553 1563 1567 1569 1568 1553 1539 1519 1495 1491 1488 1486 1484 1483 1483 1484 1483 1483 1483 1482 1482 1483 1483 1484 1485 1487 1489 1491 1492 1493 1493 1493 1493 1492 1491 1489 1487 1484 1481 1478 1475 1471 1467 1464 1459 1455 1452 1447
1553 1554 1554 1560 1563 1566 1558 1528 1498 1491 1485 1484 1480 1478 1478 1478 1478 1478 1477 1477 1477 1476 1476 1476 1476 1478 1479 1481 1483 1484 1486 1486 1486 1486 1486 1485 1483 1481 1478 1475 1472 1469 1465 1461 1457 1453 1449 1445 1441
1545 1545 1550 1557 1554 1557 1556 1520 1488 1485 1480 1478 1475 1474 1474 1474 1474 1473 1472 1471 1470 1469 1468 1468 1468 1469 1471 1473 1475 1477 1478 1479 1479 1479 1479 1478 1477 1475 1472 1469 1466 1462 1459 1455 1451 1447 1443 1439 1434